Commit Graph

1140 Commits

Author SHA1 Message Date
David Rose 0486a74e7c include assert.h 2006-04-12 15:17:04 +00:00
David Rose 7986aaa0c3 mutex_spinlock 2006-04-12 15:15:37 +00:00
David Rose b638e65532 typo 2006-04-12 00:15:44 +00:00
David Rose ca19170904 revert accidental checkin 2006-04-11 18:16:51 +00:00
David Rose 9ce524fc89 better windows locking 2006-04-11 18:15:58 +00:00
David Rose afb1520ea1 add get_ptr(), set_ptr() 2006-04-09 20:03:22 +00:00
David Rose 0a155809dc ifdef out unneeded template classes for interrogate 2006-04-07 23:01:05 +00:00
Josh Yelon 45c89f4ea6 Updating Panda version 2006-04-07 20:44:39 +00:00
David Rose 51ede9905f interface -> interface_maker (avoid conflicts with Windows SDK) 2006-04-06 17:55:26 +00:00
David Rose 03c35a63ff CHAR -> CHAR_TOK (avoid conflict with Windows SDK) 2006-04-06 17:51:24 +00:00
David Rose ff562c4acc pandabase -> dtoolbase 2006-04-06 17:48:24 +00:00
David Rose 87e992a9fc instrument allocate/deallocate 2006-04-06 04:32:22 +00:00
David Rose 141d74eb6f DO_MEMORY_USAGE 2006-04-06 02:01:33 +00:00
David Rose 0688a9b8c1 spaces around template class 2006-04-05 22:36:25 +00:00
David Rose 8a78fffd8f multithreading optimizations, tau profiler, related changes 2006-04-05 19:36:05 +00:00
David Rose 92a5776b2c LINK_IN_GLXGETPROCADDRESS 2006-03-29 22:08:06 +00:00
David Rose df2e738dfe make ctattach behavior only when ctprojs defined 2006-03-26 23:12:53 +00:00
David Rose b82652aaaa check-debug-notify-protect 2006-03-20 21:39:20 +00:00
David Rose 4ddb69b56f inconsistent #if 2006-03-20 01:02:11 +00:00
Roger Hughston 2991d343d1 Renamed to pnotify 2006-03-17 23:01:54 +00:00
Roger Hughston 42b3ba9c82 OSX big Commit ... 2006-03-17 22:55:08 +00:00
Roger Hughston 847259e346 Name Colision on OSX notify.h = pnotify.h 2006-03-16 21:28:44 +00:00
David Rose 1ef3a5c5c2 dconfig does not require command-line parameters 2006-03-14 00:09:34 +00:00
David Rose a23eb2d733 support OSX bundle linking (for Python) 2006-03-13 23:12:46 +00:00
Roger Hughston 4b6d80a908 More OSX Stuff 2006-03-13 19:45:12 +00:00
David Rose 93a06490bf frameworks 2006-03-10 01:08:31 +00:00
David Rose 9a5677fff8 add install_shader rule 2006-03-09 16:56:14 +00:00
Asad M. Zaman 191c1b4046 changed the maya_egg rules to be more robust 2006-03-03 02:47:01 +00:00
Joseph Lee 74890122cb patches to support FreeBSD build 2006-03-01 02:29:06 +00:00
David Rose 8ab0b63fd0 move mutexImpl etc. from pandaexpress 2006-02-21 23:11:05 +00:00
Roger Hughston ad0cbe08b2 First Pass(for me at least) at osx dynamic loader.. 2006-02-17 01:28:28 +00:00
Roger Hughston 524d41e92e OSX OpenGL Stuff 2006-02-16 19:25:00 +00:00
Roger Hughston e4a267db75 OSX has a isnan that conflicts with this .. ?? 2006-02-16 19:24:33 +00:00
David Rose 1d2282a879 pipelining getting close; uprev bam version to 6.0 2006-02-14 19:07:47 +00:00
David Rose c398f10d7b fix ptmalloc2 for windows again 2006-02-10 21:44:47 +00:00
Roger Hughston 5e9a5e5028 Bad USE_COMPILER flags.. ( Sorry) 2006-02-10 20:05:57 +00:00
David Rose 03a74bfede posix threads never on Windows 2006-02-10 19:58:47 +00:00
Roger Hughston c953eca82b Some more motion on osx 2006-02-10 19:54:19 +00:00
David Rose 6cad90ad28 GL_FRAMEWORK 2006-02-10 19:26:04 +00:00
David Rose 7fdf481b0f posix threads 2006-02-10 18:52:41 +00:00
David Rose 0b86e30da5 windows.h 2006-02-08 06:58:32 +00:00
Josh Yelon e3ac8d3e02 Updated version number 2006-01-24 20:38:20 +00:00
David Rose eaf21c7e2b fix unary - in interrogate 2006-01-21 00:49:17 +00:00
David Rose 01a2a7c13c define CHECK_REENTRANT_MUTEX 2006-01-17 19:12:20 +00:00
David Rose 9f2768dfed move from Gtk-- 1.x to gtk+-2.0 2006-01-17 03:59:48 +00:00
aignacio_sf f04e3c9ddc Added Cg config. 2006-01-13 20:35:39 +00:00
David Rose 572a146c24 untabify 2006-01-13 18:38:07 +00:00
David Rose 44765047d6 fix built dtool.emacs 2006-01-13 18:02:17 +00:00
David Rose d48ec456e3 define -> defer 2006-01-10 13:54:29 +00:00
David Rose 92c0793706 getenv() now works at static init on Linux 2005-12-28 22:48:39 +00:00
David Rose b98eab780f publish ExecutionEnvironment 2005-12-28 22:48:09 +00:00
Chris Brunner 1dbdffc35c drose: should add lib to PATH without requiring PENV 2005-12-22 22:22:29 +00:00
David Rose a9067e2128 report nassert_raise() message even when squelched 2005-12-20 18:37:04 +00:00
David Rose 20b5398ab8 USE_DEBUG_PYTHON 2005-12-12 17:22:34 +00:00
David Rose 8b5d1758df better define 2005-12-12 17:22:16 +00:00
David Rose 0b1504f510 add some more symbols 2005-12-09 00:55:37 +00:00
David Rose 968ad486b8 fix __rsub__ nonsense 2005-12-08 22:40:50 +00:00
Roger Hughston 5bbbeff865 Debug Mode for python witj _DEBUG flag 2005-12-01 19:29:54 +00:00
Josh Yelon c8d692b258 Increased version number to 1.1.0 2005-11-16 23:40:53 +00:00
Dave Schuyler f92b90f80b ../install/ 2005-11-10 00:55:08 +00:00
Josh Yelon fbb934c19c Changed version num to 1 0 906 2005-11-06 21:50:22 +00:00
David Rose 48e8277cae need OpenMayaUI now 2005-11-02 19:01:42 +00:00
David Rose a641f3d0cb be more lenient of case check--allow 8.3 filenames 2005-11-02 01:58:21 +00:00
Josh Yelon f4539ca2cd *** empty log message *** 2005-10-28 16:18:34 +00:00
David Rose bfe0928939 add more nodefaultlibs 2005-10-26 15:06:26 +00:00
David Rose 8d7adf5f5c robustify find_on_searchpath a bit 2005-10-12 15:51:37 +00:00
David Rose 9219cca32c add write_prc_variables 2005-10-11 21:15:27 +00:00
David Rose 7ce2019b9e maybe it's right this time? 2005-10-03 23:31:17 +00:00
David Rose 0cd217e05b correct get_panda_root() logic one more time 2005-10-03 21:16:25 +00:00
David Rose 891153853f hardcoded defaults for VR Studio-specific paths really don't belong here 2005-10-02 17:24:48 +00:00
David Rose f488b04bc7 remove implicit c:/cygwin, fix logic some more 2005-10-02 17:14:47 +00:00
Josh Yelon fb46c04ad6 Got it to compile under VC 2005-10-02 02:50:52 +00:00
Josh Yelon 818cf9d7a5 Fixed a bug in get_panda_root 2005-10-02 01:22:29 +00:00
David Rose 5ac9710eeb protect mallinfo 2005-09-30 19:56:14 +00:00
David Rose ef554b58a4 we do need malloc.h 2005-09-30 19:54:54 +00:00
David Rose 237d193cac fix malloc issues on Linux 2005-09-30 19:49:25 +00:00
David Rose 5f3b0fc55b integrate dlmalloc etc. with ppremake 2005-09-30 15:41:50 +00:00
Josh Yelon f57fe99b6a Fixes to interrogate -srcdir 2005-09-30 07:19:18 +00:00
Josh Yelon 65e665414d Added srcdir option 2005-09-30 04:14:53 +00:00
Josh Yelon 26f187350d fix an elif 2005-09-29 19:22:32 +00:00
Josh Yelon 0aac3653f2 added third-party memory managers 2005-09-29 18:27:26 +00:00
David Rose e90bc3f1c6 include EGG_SUFFIX in maya rules 2005-09-28 22:49:37 +00:00
Josh Yelon 9729541f63 Added macrocomposites 2005-09-27 22:05:52 +00:00
David Rose 97c877ad3b don't bother to write doc strings for constructors 2005-09-26 18:22:39 +00:00
David Rose 60d2c8e349 integrate HashFilename with Filename via Filename::set_pattern() 2005-09-23 17:23:30 +00:00
Dave Schuyler c0bc0d4d32 changed include to double quotes 2005-09-23 02:01:10 +00:00
David Rose f91ee87026 rename ssl -> openssl, cv -> opencv 2005-09-21 23:50:36 +00:00
David Rose 1686ae3ff9 use Unix-style paths for OpenCV, per convention 2005-09-20 00:18:16 +00:00
David Rose d24d02c02d squawk about zero-valued TypeHandles too 2005-09-15 16:13:32 +00:00
David Rose ed4b03893e issue warnings on TypeHandle conflicts 2005-09-15 15:50:44 +00:00
David Rose 9c24c092dd support python_repr 2005-09-14 00:08:50 +00:00
David Rose 096d7dfa50 better behavior for long comments 2005-09-12 17:18:05 +00:00
David Rose 88a77268b1 string limit 2005-09-12 16:11:00 +00:00
David Rose f2d34a6022 class doc strings 2005-09-10 00:02:12 +00:00
David Rose 59ceb897ed fix leaks, parameter checking in interrogate 2005-09-09 16:26:52 +00:00
David Rose fc4051f994 fix complaints about lang_add_files 2005-09-01 16:19:15 +00:00
David Rose ab7cc5fb21 typos 2005-08-25 14:18:58 +00:00
Joseph Lee efa9b3c37f MF1_1_8:
o sort filter_dirs to eliminate duplicate optchar directories
o automatically use an available current _language file if _english file is specified
2005-08-25 02:37:49 +00:00
Zachary Pavlov 930838b2c7 another set of opencv paths 2005-08-20 00:30:47 +00:00
Zachary Pavlov 3cf0cd1fb2 added opencv directories 2005-08-20 00:30:13 +00:00